TEMPEST-D (43547 NORAD) Tracking and Keplerian Element Data

This shows tracking and keplerian element data for the satellite.

Feedback or suggestion? Click here.




ElementValue
Catalog43547
NameTEMPEST-D
Epoch Orbit4356
Epoch Day111.85651343
Epoch Year2019
RAAN276.3026
Inclination51.6382
Eccentricity0.000525
Argument of Perigee265.7214
Mean Anonmoly94.3178
Mean Motion15.57241123
Decay Rate3.981E-05
L11 43547U 98067NV 19111.85651343 .00003981 00000-0 60301-4 0 9996
L22 43547 51.6382 276.3026 0005250 265.7214 94.3178 15.57241123 43566

Live tracking and technical data element details for TEMPEST-D (NORAD 43547). TEMPEST-D can be tracked NOW for your location showing map with azimuth and elevation plus other details from your city location.

Track the satellite on the map from your city or location and see movement details for azimuth, elevation, latitude, longitude, range, height, and movement on the map or in text.







IsCatalogInMostPopularTable: catalog: 43547, numindb: 130
Update: records affected: 1



GetName: 43547 TEMPEST-D

Hit Count: updated at: Tue, 23 Apr 2019 20:53:41 GMT